Back to catalog

DELTA 1 DEB

AlivePO
NORAD 19834·DEBRIS·🇺🇸 United States

Launched Jul 23, 1972 from Vandenberg Space Force Base

Loading…

Next Passes (next 24 hours)

TLE

FreshSource: Space-Track

Epoch: Sep 14, 2026, 03:41 UTC

1 19834U 72058JM  26257.15386334  .00000824  00000-0  15208-3 0  9995
2 19834  98.6189  47.1996 0127025 134.0452 227.1296 14.63367540953049

Track DELTA 1 DEB in real time with AllMySat

Download on the App Store